Regional Weather Roundup
Issued by NWS Newport/Morehead, NC

Current Version | Previous Version | Graphics & Text | Print | Product List | Glossary Off
Versions: 1 2 3 4 5 6 7 8 9 10 11 12 13 14 15 16 17 18 19 20 21 22 23 24 25 26 27 28 29 30 31 32 33 34 35 36 37 38 39 40 41 42 43 44 45 46 47 48 49 50

000
ASUS42 KMHX 120925
RWRMHX
WEATHER ROUNDUP FOR EASTERN NORTH CAROLINA
NATIONAL WEATHER SERVICE NEWPORT/MOREHEAD CITY NC
400 AM EST TUE DEC 12 2017

NOTE: "FAIR" INDICATES FEW OR NO CLOUDS BELOW 12,000 FEET
WITH NO SIGNIFICANT WEATHER AND/OR OBSTRUCTIONS TO VISIBILITY

NCZ015>017-031-032-045>047-102-103-121000-
NORTH COAST

CITY           SKY/WX    TMP DP  RH WIND       PRES   REMARKS
EDENTON        CLEAR     42  36  78 SW8       29.84F
ELIZABETH CITY CLEAR     40  37  89 S7        29.83F
KITTY HAWK     SUNNY     42  36  80 CALM      29.83F
MANTEO         CLEAR     43  36  77 SW7       29.85F

$$

NCZ045>047-081-094-103-104-121000-
CENTRAL COAST

CITY           SKY/WX    TMP DP  RH WIND       PRES   REMARKS
FRISCO         CLEAR     47  42  83 W7        29.87F

$$

NCZ095-097-098-100-101-121000-
SOUTHERN COAST

CITY           SKY/WX    TMP DP  RH WIND       PRES   REMARKS
BEAUFORT       CLEAR     52  43  71 SW10      29.88F
CEDAR ISLAND   NOT AVBL
JACKSONVILLE   CLEAR     44  38  79 SW7       29.86F
PINEY ISLAND     N/A    N/A N/A N/A S8        29.87F
WILMINGTON     CLEAR     48  41  76 SW9       29.88F


$$

NCZ011>013-027>030-043-044-078>080-089-090>093-098-121000-
COASTAL PLAIN

CITY           SKY/WX    TMP DP  RH WIND       PRES   REMARKS
AHOSKIE        PTCLDY    34  29  85 S5        29.80F
CLINTON        CLEAR     40  36  85 S3        29.83F
ELIZABETHTOWN  NOT AVBL
GOLDSBORO      CLEAR     40  33  77 S7        29.81F
GREENVILLE     CLEAR     39  32  75 S8        29.84F
HAVELOCK       CLEAR     34  34 100 CALM      29.87F
KENANSVILLE    CLEAR     36  34  93 S3        29.84F
KINSTON        CLEAR     40  35  81 S8        29.83F
NEW BERN       CLEAR     38  35  89 S7        29.87F
RICHLANDS      CLEAR     35  34  96 S7        29.86F
ROCKY MOUNT    CLOUDY    38  33  82 S6        29.81F
WASHINGTON     CLEAR     38  32  78 S5        29.84F
WHITEVILLE     CLEAR     42  36  80 S6        29.86F

$$

AMZ130-135-150-152-154-156-158-170-250-252-270-ANZ085-086-088-633-658-670-121000-
MARINE OBSERVATIONS

STATION/POSITION TIME  TEMP    WIND        PRES    WAVE   SWELL
                       AIR SEA DIR/SP/G            HT/PER HT/PER
                 (UTC) (F)     (DEG/KT/KT) (MB)    (FT/S) (FT/S)
CHESAPEAKE LIGHT NOT AVBL
64 E VA BEACH    0850   55 60  210/ 14/ 17 1010.3    2/ 8   2/ 8
DUCK             0900   46 55  210/ 10/ 12 1009.4
2 E DUCK         0900      53                N/A     2/10
OREGON INLET     0900   47 46  230/ 11/ 13 1010.8
13E OREGON INLT  0848      56                N/A     2/ 8   2/ 8
HATTERAS CG      0900   47 53  240/  8/ 11 1011.0
DIAMOND BUOY     0910   58 76  260/ 19/ 25 1011.4
CAPE LOOKOUT     0900          240/  9/ 13 1011.9
BEAUFORT LAB     0900   54 52  240/  6/ 11 1011.5
30 SE NEW RVR IN 0808   60 68  230/ 16/ 19 1012.5
30 SE NEW RVR IN 0900      68                N/A     5/ 5
27 SE WRIGHTSVLE 0808   60 65  230/ 21/ 29 1013.2
5 SE WRIGHTSVLE  0808   56 58  240/ 14/ 19 1012.4
225 S CAPE HAT   0850   68 76  230/ 17/ 21 1014.2    4/ 6   2/10
41 SE CHARLESTON 0910      74  250/ 23/ 29 1013.3

$$



USA.gov is the U.S. government's official web portal to all federal, state and local government web resources and services.